Terminal Aerodrome Forecast
Issued by NWS Mt. Holly, NJ

Home | Current Version | Previous Version | Text Only | Print | Product List | Glossary On
Versions: 1 2 3 4 5 6 7 8 9 10 11 12 13 14 15 16 17 18 19 20 21 22 23 24 25 26 27 28 29 30 31 32 33
000
FTUS41 KPHI 162300
TAFPHL
TAF
KPHL 162340Z 1700/1806 01010KT P6SM FEW250
     FM170400 05007KT P6SM FEW250
     FM171200 07010KT P6SM SCT250
     FM171800 09012KT P6SM SCT030
     FM180200 07008KT P6SM FEW020 SCT030=

USA.gov is the U.S. government's official web portal to all federal, state and local government web resources and services.